Wind_Speed
5 5 5 5 5 6 6 7 7 7 7 8 8 8 8 9 9 10 10 10 10 10 10 10 10 10 9 9 9 8 7 7 6 6 6 7 7 7 7 7 8 9 9
5 5 5 4 4 5 6 6 6 6 6 6 6 6 6 7 7 7 8 8 8 7 7 7 8 8 8 8 7 7 6 6 6 5 6 6 6 6 6 7 7 8 9
5 4 4 4 4 5 5 5 5 5 5 5 5 5 5 5 6 6 6 6 6 6 6 6 6 6 6 6 5 5 5 5 4 4 4 5 5 6 6 6 7 8 9
5 4 4 4 4 4 4 5 5 5 5 5 5 5 5 6 6 6 6 6 6 6 6 5 5 5 4 4 4 3 3 2 2 3 3 4 5 6 6 6 7 7 8
5 5 5 5 4 4 4 4 5 5 5 5 6 6 7 7 8 8 7 7 7 7 7 6 6 5 5 4 3 2 1 0 1 2 3 4 5 6 6 6 7 7 8
5 5 5 5 5 5 5 6 5 5 5 6 6 7 8 8 9 9 9 9 9 8 8 8 8 7 7 6 5 5 4 3 3 3 3 4 5 6 6 6 7 7 8
7 7 6 6 6 7 7 7 7 6 7 7 8 8 9 10 10 11 11 11 11 10 10 10 10 10 9 9 8 8 7 6 5 5 5 5 5 6 6 6 7 7 8
8 9 8 8 8 8 8 8 8 8 8 9 9 10 10 11 12 12 12 13 13 13 12 12 12 12 12 12 11 11 10 9 8 7 7 7 7 7 7 7 7 7 8
9 10 11 11 10 10 9 9 9 9 10 10 10 11 11 12 13 13 14 14 14 14 14 14 14 14 14 14 13 13 13 12 11 10 9 9 9 9 8 8 8 8 9
11 11 12 12 12 12 11 11 11 11 12 12 12 12 13 14 14 15 15 16 16 16 16 16 16 16 16 16 15 15 15 14 14 13 12 12 11 11 11 10 10 10 10
14 14 14 14 14 14 14 13 12 13 14 14 14 15 15 15 16 17 17 17 18 18 18 19 19 18 17 18 17 17 17 17 16 16 15 14 14 14 13 13 12 12 12
15 16 17 16 16 16 17 16 16 16 16 17 17 17 18 18 18 19 20 20 20 21 21 21 21 21 20 20 19 19 19 19 19 19 18 18 17 17 16 15 15 14 14
18 19 19 18 18 18 18 19 20 21 20 19 20 21 20 21 21 21 22 22 23 23 24 24 23 23 23 23 23 21 21 22 21 20 20 20 20 20 19 18 17 17 17
19 20 21 20 20 20 21 22 23 23 23 22 22 23 24 24 24 24 24 24 25 26 26 26 26 26 26 26 25 24 24 23 24 23 23 22 22 23 22 21 20 20 19
20 20 22 22 21 21 22 23 23 25 26 25 26 25 26 26 25 25 26 27 27 27 28 28 27 28 27 27 27 27 26 25 25 25 25 25 24 24 25 25 24 22 22
22 22 21 23 23 23 23 24 24 25 24 25 24 25 26 27 28 27 27 28 29 28 27 28 28 29 28 29 29 29 28 27 26 26 27 28 28 26 26 27 26 25 24
21 21 21 22 22 22 22 23 23 24 25 25 25 26 26 27 28 28 30 31 30 30 30 29 29 29 29 30 30 31 30 29 29 28 29 30 30 28 27 28 28 27 26
19 20 20 20 20 20 22 23 24 24 25 26 26 27 28 29 30 30 30 31 30 31 31 30 29 30 30 30 31 31 31 30 29 29 29 30 31 30 29 30 30 28 28
19 19 19 19 20 21 22 23 24 25 26 26 27 28 29 30 31 31 32 32 32 31 31 31 31 32 31 30 30 31 32 32 31 31 30 30 31 32 32 32 31 31 31
17 18 19 19 21 21 22 23 25 26 27 28 29 30 31 32 32 32 33 33 33 33 33 33 34 33 33 32 32 32 32 33 33 32 31 31 31 31 32 33 33 33 33
16 17 18 19 20 21 23 24 26 28 29 31 32 33 33 33 34 34 35 35 35 35 35 35 35 35 34 34 34 33 32 33 33 32 31 31 31 32 33 33 33 34 34
16 17 18 19 21 23 24 26 28 30 31 33 34 35 35 36 36 36 37 37 37 37 37 36 36 36 35 35 34 33 33 34 34 33 33 32 32 33 33 34 34 34 34
15 17 19 21 23 25 27 29 31 32 33 34 35 36 37 37 38 38 37 37 37 37 37 37 37 36 36 36 35 34 33 33 34 34 34 33 32 33 33 34 35 36 36
16 19 20 22 24 27 29 31 32 33 34 35 36 37 38 38 39 39 38 38 37 37 37 37 37 37 36 36 35 35 35 35 35 35 35 35 35 34 34 36 36 37 37
17 19 21 23 25 27 29 31 32 34 35 36 36 37 37 37 37 38 37 37 36 36 36 37 37 37 36 36 36 36 36 35 35 36 36 36 35 34 34 36 37 38 38
19 21 23 25 27 29 30 32 33 34 35 36 36 36 36 35 35 35 35 35 35 35 35 35 35 36 36 36 37 37 37 37 36 36 36 35 35 35 35 36 37 39 39
Wind_Direction
12 12 9 6 10 21 28 35 45 54 58 59 56 49 43 40 37 34 32 32 31 31 32 35 38 39 42 47 54 62 70 77 88 97 103 106 108 115 124 129 133 133 133
1 1 359 1 7 16 22 26 33 39 44 48 46 40 33 27 25 24 21 18 16 18 20 21 27 33 37 41 47 56 66 76 85 97 105 110 115 122 129 134 137 138 139
346 344 347 356 5 9 14 15 16 19 23 23 19 15 11 5 2 3 2 358 356 359 2 3 6 16 26 32 35 43 57 71 84 97 108 119 128 135 140 142 144 145 145
331 327 331 343 353 358 360 358 357 353 352 352 349 346 344 340 338 339 338 338 336 336 337 339 340 345 354 6 13 17 38 61 85 108 124 138 146 151 154 154 153 154 152
313 310 313 324 326 329 332 331 330 329 327 329 330 328 325 324 323 323 321 319 318 318 317 312 311 312 310 309 311 315 315 281 162 152 154 160 165 164 163 164 164 162 160
307 304 307 310 308 306 306 308 309 308 306 307 310 312 312 312 312 312 311 309 307 306 304 301 297 289 286 282 277 273 268 252 230 208 192 182 180 176 172 172 174 173 170
298 297 299 301 297 298 298 298 298 296 295 296 298 299 300 301 302 303 305 303 301 300 297 295 293 286 278 274 269 265 262 254 242 227 215 203 197 190 185 182 182 184 182
294 293 296 297 292 291 293 294 292 290 291 294 296 296 296 296 296 299 300 299 297 297 295 291 288 284 276 270 266 264 262 257 248 238 228 218 212 206 198 196 195 195 194
296 296 297 295 293 290 287 287 287 286 288 289 290 291 293 295 296 296 296 296 294 294 292 288 285 282 276 270 266 264 261 258 253 246 237 229 222 217 212 208 205 205 205
296 294 294 291 287 284 281 278 280 283 285 286 288 288 290 291 292 293 293 293 292 291 290 287 284 281 275 269 265 263 261 258 254 249 242 235 230 225 220 218 214 211 211
290 287 286 284 283 281 276 274 275 278 281 283 285 284 286 288 290 289 289 290 290 289 289 288 284 282 278 271 266 262 258 255 253 250 244 239 235 230 227 224 220 216 215
285 283 279 281 283 282 275 273 273 275 274 276 278 280 282 283 285 286 286 286 286 286 286 285 284 280 277 271 270 266 259 254 252 250 246 241 237 234 231 228 225 220 219
282 278 275 278 279 280 276 275 274 273 272 272 274 276 278 280 281 282 284 284 283 282 282 281 280 278 275 271 269 269 265 259 252 251 249 244 239 235 232 231 228 225 222
284 280 278 275 278 278 278 276 278 275 270 269 271 274 276 276 277 278 280 281 281 280 280 280 279 278 274 272 270 268 266 264 256 251 249 247 242 239 234 232 232 229 225
285 284 280 280 277 276 277 279 283 283 281 276 275 278 279 278 278 279 278 279 282 284 283 281 280 277 274 271 270 268 264 264 260 254 250 247 244 242 237 234 232 233 229
286 287 284 280 277 276 279 281 285 289 291 288 290 287 287 285 285 284 282 283 282 282 282 282 280 278 277 272 269 267 264 264 262 258 253 248 245 244 239 235 234 234 231
287 286 287 286 286 282 284 285 290 292 293 293 294 294 294 292 289 289 286 283 283 282 283 282 281 281 277 273 269 265 264 263 261 260 256 250 246 244 241 234 234 234 233
289 288 288 288 289 288 288 290 292 293 295 296 295 294 294 294 290 289 290 287 285 284 283 283 282 281 279 274 269 265 263 263 262 261 257 251 245 242 241 236 234 234 233
290 291 291 291 292 292 295 297 298 299 299 299 298 297 296 294 291 289 289 287 285 284 284 282 281 280 278 275 269 265 263 261 261 259 257 252 246 242 241 237 235 236 234
292 294 295 296 298 300 301 302 302 302 302 302 301 299 297 295 292 290 288 287 284 283 282 280 279 278 276 274 270 267 263 260 259 258 256 252 247 243 242 239 238 237 234
295 298 298 299 301 302 303 303 303 304 303 302 301 300 298 296 293 291 289 287 285 283 281 280 278 276 274 272 269 266 261 259 258 258 255 252 248 246 242 238 237 236 233
297 299 301 304 305 306 307 307 306 306 305 304 303 301 299 296 294 292 290 288 286 284 282 280 278 275 274 272 269 264 261 259 256 256 254 253 250 245 242 238 236 235 232
302 304 306 308 309 310 310 309 308 307 305 304 302 300 298 296 294 292 290 288 286 284 282 280 277 275 273 271 268 264 260 258 256 253 252 252 249 243 241 237 234 231 229
305 307 309 310 311 310 310 309 307 305 304 303 301 299 297 295 294 292 290 289 286 284 281 279 277 274 272 270 268 264 261 257 255 252 251 250 247 243 240 237 233 229 226
306 307 309 309 309 309 309 308 307 305 304 303 302 300 298 296 293 291 290 288 286 284 281 279 276 274 271 268 266 264 261 258 254 251 249 248 245 242 238 235 232 227 225
306 308 310 310 310 310 310 310 308 307 306 305 304 302 300 297 295 293 291 289 287 284 282 279 276 273 270 267 265 263 261 258 254 251 248 247 244 239 236 233 231 228 226
Height
5905 5905 5904 5904 5903 5902 5902 5902 5902 5902 5902 5901 5901 5901 5901 5901 5901 5901 5901 5901 5901 5901 5901 5900 5900 5899 5899 5899 5898 5898 5898 5898 5898 5898 5898 5898 5898 5899 5899 5899 5899 5900 5900
5905 5904 5904 5904 5903 5902 5902 5901 5901 5901 5901 5901 5901 5901 5901 5901 5901 5901 5901 5901 5901 5900 5900 5900 5900 5899 5899 5899 5899 5899 5899 5899 5899 5899 5899 5899 5899 5900 5900 5900 5901 5901 5901
5905 5904 5904 5903 5903 5902 5901 5901 5901 5901 5901 5901 5901 5901 5901 5901 5901 5901 5900 5900 5900 5900 5900 5899 5899 5899 5899 5898 5898 5898 5899 5899 5899 5899 5899 5899 5900 5900 5901 5901 5902 5902 5902
5904 5904 5903 5903 5902 5902 5901 5901 5900 5900 5900 5900 5900 5900 5900 5900 5900 5899 5899 5899 5899 5899 5899 5898 5898 5898 5898 5898 5898 5898 5898 5899 5899 5899 5899 5900 5900 5901 5901 5902 5903 5903 5903
5904 5903 5903 5902 5901 5901 5900 5900 5900 5900 5899 5899 5899 5899 5898 5898 5898 5898 5898 5897 5897 5897 5897 5897 5897 5897 5897 5897 5897 5897 5898 5898 5898 5899 5899 5900 5900 5901 5901 5902 5903 5903 5904
5903 5902 5902 5901 5900 5900 5900 5899 5899 5899 5898 5898 5898 5897 5897 5896 5896 5896 5896 5895 5895 5895 5895 5895 5895 5895 5895 5896 5896 5896 5897 5897 5897 5898 5899 5899 5900 5901 5901 5902 5903 5904 5904
5902 5901 5901 5900 5899 5899 5898 5898 5898 5897 5897 5896 5896 5896 5895 5895 5894 5894 5894 5893 5893 5893 5893 5893 5893 5893 5893 5894 5894 5894 5895 5896 5896 5897 5897 5898 5899 5900 5900 5901 5902 5903 5904
5901 5900 5899 5899 5898 5897 5897 5896 5896 5896 5895 5895 5894 5894 5893 5893 5892 5892 5891 5891 5891 5891 5891 5891 5891 5891 5891 5891 5891 5892 5893 5893 5894 5895 5896 5897 5897 5898 5899 5900 5901 5902 5903
5899 5899 5898 5897 5897 5896 5895 5895 5894 5894 5893 5893 5892 5891 5891 5890 5890 5889 5889 5888 5888 5888 5888 5887 5887 5888 5888 5888 5888 5889 5889 5890 5891 5892 5893 5894 5895 5897 5898 5899 5900 5901 5903
5897 5897 5896 5895 5894 5894 5893 5892 5892 5891 5890 5890 5889 5889 5888 5888 5887 5887 5886 5885 5885 5884 5884 5884 5884 5884 5884 5884 5885 5886 5886 5887 5888 5889 5890 5892 5893 5894 5896 5897 5898 5900 5901
5894 5894 5893 5892 5892 5891 5890 5890 5889 5888 5887 5887 5886 5886 5885 5884 5884 5883 5883 5882 5881 5881 5880 5880 5880 5880 5880 5880 5881 5882 5883 5883 5884 5885 5887 5888 5890 5891 5893 5895 5896 5898 5899
5891 5891 5890 5889 5888 5887 5887 5886 5885 5884 5883 5882 5882 5882 5881 5880 5880 5880 5879 5878 5877 5877 5876 5876 5875 5875 5875 5876 5876 5877 5878 5879 5880 5881 5883 5884 5886 5888 5890 5892 5893 5895 5897
5888 5887 5886 5885 5885 5884 5883 5882 5881 5879 5878 5877 5877 5877 5876 5876 5875 5875 5874 5874 5873 5872 5871 5871 5870 5870 5870 5870 5871 5872 5873 5874 5875 5877 5878 5880 5881 5884 5886 5888 5890 5892 5894
5884 5883 5882 5881 5880 5879 5878 5877 5875 5874 5873 5872 5871 5871 5870 5870 5869 5869 5869 5868 5867 5866 5865 5865 5864 5864 5864 5865 5865 5866 5867 5868 5870 5871 5873 5875 5876 5878 5881 5883 5885 5888 5890
5879 5878 5877 5876 5875 5873 5872 5871 5871 5869 5868 5866 5866 5865 5864 5863 5863 5862 5862 5861 5860 5860 5859 5859 5858 5858 5858 5858 5859 5860 5861 5862 5863 5865 5867 5869 5871 5873 5875 5878 5880 5883 5885
5874 5873 5873 5871 5869 5868 5867 5866 5865 5864 5862 5861 5860 5860 5859 5858 5857 5856 5856 5855 5854 5853 5853 5853 5852 5852 5851 5852 5852 5853 5854 5855 5857 5858 5860 5862 5864 5866 5868 5871 5874 5877 5880
5870 5869 5868 5866 5865 5863 5863 5861 5860 5859 5858 5857 5856 5855 5854 5852 5852 5851 5850 5849 5847 5847 5846 5846 5845 5845 5845 5845 5845 5846 5847 5849 5850 5852 5853 5855 5857 5859 5862 5865 5868 5871 5874
5866 5865 5864 5863 5861 5860 5858 5857 5856 5854 5853 5852 5851 5850 5848 5846 5845 5844 5843 5842 5841 5840 5840 5839 5839 5838 5838 5838 5838 5839 5840 5841 5843 5844 5846 5848 5850 5852 5855 5858 5861 5864 5868
5862 5861 5860 5858 5857 5855 5854 5852 5851 5850 5847 5846 5845 5844 5842 5840 5838 5837 5836 5835 5834 5833 5832 5831 5831 5831 5831 5830 5831 5831 5832 5834 5835 5836 5838 5841 5843 5845 5848 5851 5854 5858 5861
5858 5857 5856 5854 5853 5851 5849 5848 5847 5845 5841 5839 5838 5837 5834 5832 5830 5829 5828 5827 5826 5825 5824 5823 5823 5823 5823 5822 5823 5824 5825 5826 5827 5829 5831 5833 5835 5838 5841 5844 5847 5850 5854
5854 5853 5852 5850 5849 5847 5845 5843 5841 5839 5836 5834 5832 5829 5827 5825 5823 5821 5819 5818 5817 5816 5815 5814 5814 5814 5814 5814 5814 5815 5816 5817 5819 5821 5823 5825 5828 5830 5833 5836 5840 5843 5846
5850 5849 5848 5846 5844 5842 5840 5838 5835 5832 5830 5827 5824 5821 5818 5816 5814 5812 5810 5808 5806 5805 5805 5804 5804 5804 5804 5804 5804 5805 5807 5810 5811 5813 5815 5817 5819 5822 5825 5828 5832 5835 5839
5846 5845 5843 5841 5839 5837 5834 5831 5828 5825 5822 5819 5816 5813 5810 5807 5804 5802 5800 5798 5797 5795 5794 5794 5793 5793 5794 5794 5794 5796 5798 5800 5802 5804 5806 5808 5811 5814 5817 5820 5824 5828 5832
5843 5841 5839 5837 5834 5831 5829 5825 5822 5818 5815 5812 5808 5804 5801 5798 5795 5792 5790 5788 5786 5785 5784 5783 5783 5783 5783 5784 5784 5785 5788 5790 5792 5795 5797 5799 5802 5805 5808 5812 5816 5820 5824
5839 5837 5835 5833 5830 5827 5823 5819 5815 5811 5807 5803 5799 5795 5792 5788 5785 5782 5780 5778 5776 5775 5774 5773 5772 5772 5773 5773 5774 5775 5777 5780 5782 5785 5788 5790 5793 5796 5799 5803 5808 5812 5816
5836 5834 5831 5828 5824 5821 5817 5812 5808 5804 5799 5795 5791 5787 5783 5779 5776 5773 5770 5768 5767 5765 5764 5763 5762 5762 5762 5763 5764 5765 5767 5769 5772 5775 5778 5780 5783 5787 5790 5794 5799 5804 5809